Regional Weather Roundup
Issued by NWS

Home | Current Version | Previous Version | Text Only | Print | Product List | Glossary On
Versions: 1 2 3 4 5 6 7 8 9 10 11 12 13 14 15 16 17 18 19 20 21 22 23 24 25 26 27 28 29 30 31 32 33 34 35 36 37 38 39 40 41 42 43 44 45 46 47 48 49 50
000
ASUS43 KTOP 290659
RWRKS

WEATHER ROUNDUP FOR KANSAS
NATIONAL WEATHER SERVICE GOODLAND KS
200 AM CDT WED MAR 29 2017

NOTE:  "FAIR" INDICATES FEW OR NO CLOUDS BELOW 12,000 FEET WITH NO
SIGNIFICANT WEATHER AND/OR OBSTRUCTIONS TO VISIBILITY.

KSZ001>006-013>018-027>032-041>047-290800-
NORTHWEST KANSAS

CITY           SKY/WX    TMP DP  RH WIND       PRES   REMARKS
GOODLAND       LGT RAIN  39  39 100 NE17      29.99F FOG     WCI  30
HAYS             N/A     45  44  97 NE21      29.90F FOG
HILL CITY      LGT RAIN  43  43 100 NE17G28   29.98F FOG
RUSSELL        CLOUDY    45  44  97 NE20      29.89F
$$

KSZ061>065-074>080-084>089-290800-
SOUTHWEST KANSAS

CITY           SKY/WX    TMP DP  RH WIND       PRES   REMARKS
DODGE CITY     LGT RAIN  46  45  96 NE20G28   29.84F FOG
ELKHART          N/A     41  35  79 N15         N/A
GARDEN CITY    CLOUDY    44  42  93 NE22      29.87F
LIBERAL        CLOUDY    46  41  81 N15       29.85S
$$

KSZ066>073-081>083-090>101-290800-
SOUTHEAST KANSAS

CITY           SKY/WX    TMP DP  RH WIND       PRES   REMARKS
CHANUTE        CLOUDY    56  51  84 E20G31    29.71F
COFFEYVILLE    TSTM      58  56  93 SW13      29.77R FOG
MEDICINE LODGE   N/A     50  48  93 E21G30    29.77F
NEWTON         LGT RAIN  49  48  97 N22G28    29.86F
PARSONS        TSTM      60  55  83 SW6       29.76R
WICHITA INTL   TSTM      51  51 100 N28G37    29.79F FOG
WICHITA JABRA  HVY RAIN  50  49  96 N21G31    29.81F FOG
WICHITA MCCONL HVY RAIN  50  48  93 NE26G37   29.79F FOG
WINFIELD       RAIN      51  49  92 N26G38    29.73F
$$

KSZ007>012-019>026-033>040-048>060-102>105-290800-
NORTHEAST KANSAS

CITY           SKY/WX    TMP DP  RH WIND       PRES   REMARKS
CONCORDIA      LGT RAIN  46  46 100 NE12      29.94F FOG
EMPORIA        HVY RAIN  50  50 100 NE22G28   29.82R FOG
LAWRENCE       TSTM      53  50  89 NE14G23   29.92R
MANHATTAN      HVY RAIN  51  50  96 NE20G25   29.91F FOG
OLATHE IND     CLOUDY    53  48  83 E23G36    29.87S
OLATHE EXE     CLOUDY    52  50  93 E15G25    29.88F
SALINA         HVY RAIN  51  49  92 E14       29.87F FOG
TOPEKA BILLARD HVY RAIN  51  51 100 N13G25    29.91F FOG
TOPEKA FORBES  RAIN      52  51  97 NE6G22    29.94R FOG
$$




USA.gov is the U.S. government's official web portal to all federal, state and local government web resources and services.